Regional Weather Roundup
Issued by NWS Upton, NY

Current Version | Previous Version | Text Only | Print | Product List | Glossary On
Versions: 1 2 3 4 5 6 7 8 9 10 11 12 13 14 15 16 17 18 19 20 21 22 23 24 25 26 27 28 29 30 31 32 33 34 35 36 37 38 39 40 41 42 43 44 45 46 47 48 49 50
000
ASUS41 KOKX 252107
RWROKX

REGIONAL WEATHER ROUNDUP
NATIONAL WEATHER SERVICE NEW YORK NY
500 PM EDT SAT APR 25 2015

NOTE: "FAIR" INDICATES FEW OR NO CLOUDS BELOW 12,000 FEET WITH NO
SIGNIFICANT WEATHER AND/OR OBSTRUCTIONS TO VISIBILITY.

NYZ071-072-176-178-NJZ106-104-252200-
NEW YORK CITY METRO AREA


CITY           SKY/WX    TMP DP  RH WIND       PRES   REMARKS
CENTRAL PARK   MOSUNNY   60  20  21 VRB6      29.72F
LAGUARDIA APRT PTSUNNY   59  21  23 W9        29.70F
KENNEDY INTL   PTSUNNY   56  24  29 SW17      29.72F
NEWARK/LIBERTY PTSUNNY   61  22  22 W9        29.70F
BRNX BOT. GARD   N/A     59  23  25 S3        29.71S
TETERBORO      MOSUNNY   59  23  25 NW6       29.69F
$$

NYZ177-179-078>081-252200-
LONG ISLAND NEW YORK

CITY           SKY/WX    TMP DP  RH WIND       PRES   REMARKS
FARMINGDALE    MOSUNNY   56  26  31 SE6       29.71F
ISLIP          MOSUNNY   58  24  27 W12G21    29.70F
SHIRLEY        SUNNY     56  28  34 SW12G21   29.72S
WESTHAMPTON    MOSUNNY   53  31  42 SW13G20   29.73S
MONTAUK POINT    N/A     53  31  42 SW10G18   29.72S
$$

NYZ052-065-067-252200-
HUDSON VALLEY

CITY           SKY/WX    TMP DP  RH WIND       PRES   REMARKS
WHITE PLAINS   MOSUNNY   56  22  26 W12       29.69F
NEWBURGH       MOSUNNY   57  28  33 W9        29.70F
MONTGOMERY     SUNNY     59  26  28 NW14G23   29.69F
POUGHKEEPSIE   SUNNY     59  24  26 N6        29.69F
ALBANY         PTSUNNY   55  25  31 NW12      29.72S
$$

NJZ001-105-106-008-010-013-015-019>022-104-252200-
NEW JERSEY

CITY           SKY/WX    TMP DP  RH WIND       PRES   REMARKS
NEWARK/LIBERTY PTSUNNY   61  22  22 W9        29.70F
TETERBORO      MOSUNNY   59  23  25 NW6       29.69F
CALDWELL       MOSUNNY   59  21  23 VRB6      29.70F
MORRISTOWN     MOSUNNY   59  23  25 CALM      29.71F
SOMERVILLE     MOSUNNY   61  25  25 VRB7      29.70F
SUSSEX         MOSUNNY   58  24  27 N10G17    29.70F
ANDOVER          N/A     57  24  28 CALM      29.70F
TRENTON        MOSUNNY   56  23  27 W9        29.73F
MILLVILLE      SUNNY     55  24  30 W13       29.77F
ATLANTIC CITY  MOSUNNY   56  23  27 VRB6      29.76F
WRIGHTSTOWN    PTSUNNY   56  24  29 NW8       29.72F
TOMS RIVER     PTSUNNY   55  25  30 NW7       29.75F
BELMAR         MOSUNNY   57  27  30 W10       29.73F
$$

PAZ047>061-062-071-252200-
EASTERN PENNSYLVANIA

CITY           SKY/WX    TMP DP  RH WIND       PRES   REMARKS
PHILADELPHIA   PTSUNNY   58  24  27 SW13      29.76F
ALLENTOWN      MOSUNNY   58  25  28 VRB5      29.71F
SCRANTON       MOSUNNY   55  24  30 NW6       29.72F
$$

CTZ002-004>006-009-010-012-RIZ004-006-007-MAZ004-011-015-252200-
SOUTHERN NEW ENGLAND
 IN CT

CITY           SKY/WX    TMP DP  RH WIND       PRES   REMARKS
BRADLEY INTL   MOSUNNY   57  24  28 NW15G24   29.68S
HARTFORD       SUNNY     58  24  27 NW8       29.69S
DANBURY        SUNNY     57  23  26 NW12G17   29.70F
WTRBRY/OXFORD  MOSUNNY   54  25  32 NW9G21    29.69F
BRIDGEPORT     SUNNY     57  29  34 SW9       29.70F
MERIDEN        SUNNY     59  22  24 NW14G22   29.69S
NEW HAVEN      MOSUNNY   54  31  41 SW10G18   29.69F
CHESTER        FAIR      55  23  28 NW9G24    29.69S
GROTON         SUNNY     51  31  46 SW14G25   29.68S
WILLIMANTIC    SUNNY     57  24  28 NW12G17   29.68S

 IN RI

CITY           SKY/WX    TMP DP  RH WIND       PRES   REMARKS
PROVIDENCE     MOSUNNY   56  23  27 N14G20    29.67S
BLOCK ISLAND   SUNNY     48  32  53 SW18G24   29.70S
WESTERLY       MOSUNNY   51  29  42 SW10G24   29.69S

 IN MA

CITY           SKY/WX    TMP DP  RH WIND       PRES   REMARKS
BOSTON         PTSUNNY   55  26  32 NW14      29.68S
WORCESTER      MOSUNNY   51  23  33 NW12      29.67S
WESTFIELD      MOSUNNY   58  25  28 W14G24    29.69R
PROVINCETOWN   CLOUDY   N/A N/A N/A SW6       29.69F
NANTUCKET      CLOUDY    47  32  56 SW16      29.72S
$$

ANZ330-335-338-340-345-350-353-355-252200-
COASTAL MARINE OBSERVATIONS


STATION/POSITION TIME  SKY/WX   TEMP    WIND        PRES    VSBY  WAVE
                                AIR SEA DIR/SP/G                  HT/PER
                 (UTC)          (F)     (DEG/KT/KT) (MB)    (MI)  (FT/S)
NY HARB ENTRANCE 2050            47 46  170/ 14/ 16 1006.5          1/12
4S FIRE IS       2003               44                N/A           2/ 4
20S FIRE ISLAND  2050            45 43  210/ 12/ 14 1007.4          1/ 3
23SW MTP         2050                                 N/A           3/ 5
HUDSON CANYON    NOT AVBL
EXECUTION ROCKS  NOT AVBL
WESTERN LI SOUND NOT AVBL
CENTRAL LI SOUND NOT AVBL
EASTERN LI SOUND 2000            46     250/ 16/ 21   N/A
ROBBINS REEF     2000            55     250/ 10/ 12 1005.3
$$


>>>>>>>>>>>>>>>>>>>>>>>>>>>> KEY <<<<<<<<<<<<<<<<<<<<<<<<<<<
>                                                          <
>     SKY/WX - SKY CONDITION/PRESENT WEATHER               <
>     TMP    - TEMPERATURE IN FAHRENHEIT                   <
>     DP     - DEWPOINT IN FAHRENHEIT                      <
>     RH     - RELATIVE HUMIDITY IN PERCENT                <
>     WIND   - DIRECTION AND SPEED IN MPH                  <
>     PRES   - MEAN SEA LEVEL PRESSURE IN INCHES OF HG     <
>     WCI    - WIND CHILL INDEX                            <
>     VSB    - VISIBILITY IN MILES                         <
>     HX     - HEAT INDEX                                  <
>     TC     - TEMPERATURE IN CELSIUS                      <
>     VRB    - VARIABLE WIND DIRECTION                     <
>                                                          <
>>>>>>>>>>>>>>>>>>>>>>>>>>>> KEY <<<<<<<<<<<<<<<<<<<<<<<<<<<




USA.gov is the U.S. government's official web portal to all federal, state and local government web resources and services.